Weather at Horta Airport

Public forecast

Using degrees Celsius for public forecast. Weather courtesy of forecast.io.

Current aviation weather report (METAR) for Horta Airport

Retrieved 2020/09/20 11:30 UTC (0 seconds ago):

LPHR 201130Z 07021KT 9999 FEW014 23/17 Q1018

Aviation forecast (TAF) for Horta Airport

Forecast is more than 12 hours old.

Retrieved 2018/09/06 09:00 UTC (2 years ago):

TAF LPHR 060800Z 0609/0618 12010KT 9999 SCT018 SCT040 PROB30 TEMPO 0609/0618 5000 SHRA BKN015 FEW018CB BECMG 0610/0612 18010KT